Tracking 30298 objects as of 27-Apr-2025
HD Live streaming from Space Station
objects crossing your sky now

STARLINK-31468

Track STARLINK-31468 now!
10-day predictions
STARLINK-31468 is classified as:


NORAD ID: 58998
Int'l Code: 2024-036A
Perigee: 481.7 km
Apogee: 483.2 km
Inclination: 53.2 °
Period: 94.1 minutes
Semi major axis: 6853 km
RCS: Unknown
Launch date: February 23, 2024
Source: United States (US)
Launch site: AIR FORCE WESTERN TEST RANGE (AFWTR)
Your satellite tracking list
Your tracking list is empty




NASA's NSSDC Master Catalog

Two Line Element Set (TLE):
1 58998U 24036A   25116.95463622 -.00001855  00000-0 -50561-4 0  9998
2 58998  53.1601 109.0559 0001134 116.5714 243.5403 15.30169896 66843
Source of the keplerian elements: AFSPC